Location: ??????
(56.0120°N, 39.1740°E)
Time: 20:47:12
(UTC+00:00)

Cosmos 1833 Rocket - Pass Details

Date: 14 April 2026
Orbit: 832 x 838 km, 71.0° (Epoch: 11 May)

Event Time Altitude Azimuth Distance (km) Brightness Sun altitude
Exits shadow 23:35:50 32° 236° (SW) 1,398 3.3 -18.8°
Maximum altitude 23:38:27 67° 309° (NW) 905 2.8 -18.6°
Drops below altitude 10° 23:44:04 10° 32° (NNE) 2,454 6.4 -18.1°
Sets 23:46:32 0° 36° (NE) 3,392 7.6 -17.9°
